Home > Weather > Atlantic City > Past weeks

Flag for U.S.A. Weather for the Past 2 Weeks in Atlantic City, New Jersey, U.S.A.

Now
37 °F

Overcast.


Feels Like: 28 °F
Forecast: 36 / 40 °F
Wind: 15 mph from Northeast

Location: Atlantic City International Airport

Current Time: Feb 9, 2016 at 4:49:44 PM

Latest Report: Feb 9, 2016 at 3:54 PM


Visibility: 10 mi

Pressure: 29.55 "Hg

Humidity: 70%

Dew point: 28 °F

Location of Atlantic CityLocation

Historic Weather in Atlantic City — Graph

°F

Atlantic City Temperature Yesterday

Maximum temperature yesterday: 41 °F (at 12:54 PM)
Minimum temperature yesterday: 33 °F (at 9:54 PM)
Average temperature yesterday: 38 °F

High & Low Weather Summary for the Past Weeks

 TemperatureHumidityPressure
High65 °F (Feb 1, 11:54 AM)100% (Feb 4, 6:00 AM)30.46 "Hg (Feb 4, 6:00 AM)
Low20 °F (Jan 28, 6:54 AM)33% (Jan 31, 1:54 PM)29.52 "Hg (Jan 29, 4:54 AM)
Average40 °F71%30.00 "Hg
* Reported Jan 25 2:54 PM — Feb 9 2:54 PM, Atlantic City, Weather by CustomWeather, © 2016

Note: Actual official high and low records may vary slightly from our data, if they occured in-between our weather recording intervals... More about our weather records

Advertising

Atlantic City Weather History for the Previous 24 Hours

 ConditionsComfort  
Time TempWeatherWind HumidityBarometerVisibility
2:54 PM
Tue, Feb 9
38 °FMostly cloudy.14 mph60%29.54 "Hg10 mi
1:54 PM38 °FOvercast.12 mph73%29.54 "Hg10 mi
12:54 PM38 °FOvercast.13 mph60%29.54 "Hg10 mi
11:54 AM39 °FCloudy.14 mph65%29.56 "Hg10 mi
10:54 AM40 °FMostly cloudy.10 mph63%29.58 "Hg10 mi
9:54 AM38 °FMostly cloudy.10 mph70%29.58 "Hg10 mi
9:01 AM37 °FPartly sunny.12 mph76%29.59 "Hg9 mi
7:54 AM35 °FCloudy.5 mph78%29.61 "Hg10 mi
6:56 AM34 °FLight rain. Mostly cloudy.5 mph85%29.61 "Hg9 mi
5:54 AM34 °FLight snow. Fog.7 mph85%29.61 "Hg6 mi
4:54 AM34 °FMostly cloudy.6 mph85%29.62 "Hg7 mi
3:54 AM34 °FLow clouds.8 mph88%29.61 "Hg7 mi
3:04 AM34 °FMostly cloudy.7 mph88%29.64 "Hg8 mi
1:54 AM33 °FPassing clouds.3 mph92%29.67 "Hg10 mi
12:54 AM33 °FLight snow. Fog.7 mph92%29.69 "Hg3 mi
11:54 PM
Mon, Feb 8
33 °FLight snow. Fog.6 mph92%29.72 "Hg3 mi
10:54 PM33 °FLight snow. Fog.6 mph92%29.73 "Hg3 mi
9:54 PM33 °FLight snow. Fog.8 mph92%29.76 "Hg2 mi
9:01 PM34 °FLight snow. Overcast.8 mph85%29.77 "Hg9 mi
7:54 PM34 °FMostly cloudy.9 mph82%29.78 "Hg10 mi
6:54 PM34 °FOvercast.9 mph76%29.77 "Hg10 mi
5:54 PM35 °FOvercast.12 mph70%29.75 "Hg10 mi
4:54 PM36 °FMore clouds than sun.12 mph70%29.74 "Hg10 mi
Weather by CustomWeather, © 2016

See weather overviewHow to use our weather pages